RH
29 27 22 13 8 7 6 6 6 6 6 7 6 6 6 6 6 7 7 6 5 4 5 4 4 4 4 4 4 4 5 6 6 6 6 9 12 13 13 10 10 12 14 20
27 20 13 7 7 7 6 6 7 6 7 7 7 7 7 7 6 6 6 6 6 5 5 5 4 4 4 4 4 4 4 5 6 6 6 6 8 11 13 13 11 9 11 12
17 12 7 6 8 8 7 6 6 7 7 6 7 7 6 6 6 6 6 6 6 6 5 5 4 4 4 4 4 4 4 4 4 6 6 6 6 7 10 12 13 12 10 11
11 7 6 7 8 8 7 7 7 7 6 6 6 6 7 7 6 6 7 6 6 6 6 5 5 4 4 4 4 4 4 4 4 4 5 6 5 5 6 8 10 12 13 12
7 6 7 8 7 7 7 7 7 6 6 6 6 6 6 7 7 7 7 7 6 7 6 6 5 4 4 4 4 4 4 4 4 4 4 5 6 6 5 5 6 8 10 12
7 7 7 8 7 7 7 7 6 6 5 5 6 6 6 7 8 8 8 7 7 8 7 6 6 5 4 4 4 4 4 4 4 4 3 4 5 6 6 5 5 6 7 8
8 7 8 8 7 6 6 5 5 6 6 6 6 6 6 6 7 8 9 9 8 8 8 7 7 6 5 4 4 4 4 4 4 4 4 4 4 5 5 5 5 5 5 6
8 7 7 7 6 6 6 6 6 6 6 6 6 6 6 6 6 8 9 8 9 9 8 8 8 7 6 5 5 4 4 4 4 4 4 4 4 4 5 5 6 5 5 5
7 7 6 6 6 6 6 6 6 6 6 6 6 6 6 6 6 7 8 9 9 9 9 9 9 8 8 7 6 5 5 5 4 4 4 4 4 4 4 5 5 5 5 4
6 6 6 6 6 5 5 5 5 5 5 5 5 5 5 5 6 6 7 8 10 9 9 10 9 9 8 8 6 6 5 5 5 5 5 5 4 4 4 4 5 6 6 5
6 6 5 5 5 5 5 5 5 5 5 5 6 7 6 7 6 6 6 8 9 10 9 10 10 9 9 9 8 7 6 6 6 6 6 5 5 5 4 4 5 6 6 6
6 5 5 5 5 6 6 6 5 5 5 6 7 8 8 8 8 7 6 8 9 10 9 10 11 10 10 10 9 8 7 7 7 7 6 6 6 5 5 5 5 6 7 6
6 5 5 5 5 5 5 6 6 5 6 8 8 8 9 9 8 8 8 7 8 9 9 10 11 11 11 11 10 8 8 8 8 8 7 7 7 7 7 6 6 7 8 7
7 6 6 6 5 5 6 6 6 7 8 8 8 8 8 8 8 9 10 8 8 8 9 10 11 11 11 12 10 9 9 10 9 9 9 10 9 9 8 8 7 8 9 8
7 7 6 6 6 6 6 7 8 8 8 8 8 8 8 7 7 8 9 9 8 8 9 10 11 11 12 12 10 11 11 11 11 12 12 12 13 12 11 10 10 11 10 10
8 7 6 6 6 7 7 8 8 8 8 8 8 8 8 7 7 7 8 9 8 7 8 10 11 12 12 12 11 11 12 12 13 13 14 15 15 16 14 13 13 12 12 10
8 7 6 6 6 7 7 8 8 8 8 8 8 8 8 8 7 7 8 8 8 7 7 9 10 12 12 13 12 11 13 13 15 15 16 17 17 18 16 16 14 14 13 12
7 7 6 6 6 7 8 8 8 8 7 8 7 7 7 7 7 7 7 8 8 7 7 8 10 11 12 12 12 11 13 14 16 18 18 18 19 20 18 17 17 17 16 13
6 7 6 6 6 6 6 7 8 8 7 7 6 6 6 6 7 8 7 6 6 6 6 7 9 11 11 12 13 12 12 15 16 18 20 20 22 22 22 22 21 22 21 19
6 6 6 6 6 6 6 6 6 7 7 7 6 7 6 6 6 7 7 7 6 6 6 7 8 10 10 11 13 13 12 13 16 18 20 21 23 23 24 26 23 24 29 24
6 6 6 6 6 6 6 6 6 6 7 7 6 6 7 6 6 6 7 7 6 6 6 7 8 8 9 11 11 13 12 12 14 17 19 22 23 25 26 26 25 24 31 30
6 6 6 6 6 6 6 6 6 6 6 6 6 6 6 6 7 6 6 6 7 7 6 7 7 7 8 10 10 12 13 12 13 14 18 20 23 25 26 26 25 27 25 32
6 6 6 6 6 6 6 6 6 6 6 6 6 6 6 6 7 7 7 6 6 6 7 7 7 7 7 9 9 10 12 13 12 12 14 17 20 22 25 26 24 22 22 25
6 5 5 6 6 6 5 6 6 6 6 6 6 6 6 6 6 7 7 7 7 5 6 6 6 6 7 9 9 9 10 12 13 11 11 13 16 20 22 25 27 25 23 22
7 6 6 6 6 7 7 7 6 6 6 6 5 6 5 5 5 6 6 6 7 7 6 6 6 6 6 8 8 8 9 9 11 13 12 11 12 15 19 22 24 24 24 27
10 9 8 7 7 8 8 8 8 8 7 6 5 5 5 5 5 5 6 6 5 6 7 7 6 5 5 6 7 7 7 8 8 10 12 12 11 11 14 17 20 22 22 22
11 11 10 9 8 7 7 7 8 8 8 7 7 6 5 5 5 5 5 5 5 5 5 6 6 7 6 5 6 6 6 7 7 7 9 11 12 12 10 12 14 17 20 21
Wind_Speed
162 167 163 145 128 119 111 101 93 87 86 82 80 75 71 70 70 68 69 70 71 72 73 73 76 79 84 89 94 100 108 116 123 130 137 142 150 155 158 157 154 155 154 153
168 161 146 127 114 109 101 92 87 83 79 76 72 68 67 66 63 63 63 63 65 66 68 68 70 73 76 81 86 91 98 106 113 119 126 133 138 147 152 156 156 152 152 153
156 144 125 110 107 101 94 88 81 75 70 67 63 61 61 60 59 56 55 57 57 59 62 64 65 67 69 73 79 84 88 95 102 109 116 123 128 132 142 148 151 154 151 150
140 124 109 101 97 91 88 82 74 69 66 60 59 57 56 57 55 51 51 51 52 53 56 58 60 62 63 65 70 77 82 86 91 98 104 110 116 122 128 136 144 146 150 152
122 109 100 93 89 83 78 71 68 64 60 57 54 53 51 51 51 48 47 47 48 48 51 52 54 56 57 59 62 67 74 79 83 88 94 100 106 111 116 122 130 138 143 146
109 100 92 87 83 76 70 65 63 59 57 54 52 51 49 48 47 45 45 44 43 44 45 47 48 51 52 54 55 59 65 71 75 80 84 90 95 100 105 108 113 122 131 136
98 91 84 81 75 70 64 60 58 56 54 51 50 49 47 46 44 43 43 42 41 40 42 42 44 46 47 49 52 53 57 62 67 72 76 80 85 90 95 99 103 107 113 120
88 83 77 72 68 65 61 59 57 54 52 49 48 47 47 45 43 41 42 40 39 39 41 38 41 43 44 44 47 49 51 55 60 63 67 71 76 79 84 89 93 97 101 107
81 75 70 66 63 61 58 56 54 52 50 47 45 44 43 42 42 41 40 38 38 36 38 37 38 40 41 42 42 44 46 49 52 56 59 63 67 71 75 79 83 88 91 96
72 68 65 62 59 56 54 52 51 49 47 46 44 43 41 40 39 39 39 36 36 36 35 35 37 37 39 39 39 39 41 43 46 50 54 56 59 63 67 71 75 79 83 87
66 63 60 57 55 53 52 51 49 47 45 43 42 41 40 38 37 37 36 35 35 35 34 34 35 36 37 37 37 36 37 40 42 45 48 51 54 57 60 63 68 72 75 78
59 57 55 53 52 50 49 48 46 44 42 40 39 37 37 36 35 35 35 33 33 34 33 33 33 34 35 36 35 35 36 38 39 42 45 47 49 51 53 56 61 66 68 71
55 53 52 51 49 46 44 43 41 40 39 37 37 35 35 35 33 31 32 32 32 32 32 32 32 33 33 34 34 35 36 37 39 40 42 43 44 45 48 52 55 59 62 64
51 50 49 48 46 43 39 38 38 36 35 34 32 33 32 32 31 30 29 30 32 31 31 31 32 32 33 33 33 34 36 37 38 38 39 40 41 43 46 50 52 54 57 60
47 46 44 43 42 39 36 35 34 34 32 31 31 30 30 29 30 28 28 29 30 30 30 31 31 32 32 33 33 34 35 36 37 38 39 40 40 43 46 47 50 53 55 57
43 42 40 39 37 35 33 32 30 30 30 28 29 29 27 27 27 26 27 28 29 29 30 31 31 31 33 33 34 35 36 37 38 39 40 40 42 44 46 48 50 53 54 57
39 38 37 35 34 33 31 29 28 27 27 27 27 27 26 25 24 24 24 26 27 28 29 30 30 31 32 33 34 36 37 38 39 41 41 42 43 46 48 50 51 52 53 55
35 34 32 31 31 30 29 27 27 26 25 25 26 25 25 24 22 22 23 23 25 26 27 29 30 31 32 34 35 37 39 40 41 42 43 43 45 47 49 49 48 51 52 52
32 32 31 29 28 27 26 25 25 24 24 24 24 23 22 22 21 21 21 22 22 23 25 27 29 30 32 34 35 38 40 41 42 43 44 45 47 48 49 50 50 50 51 52
30 29 28 27 26 25 26 25 24 23 22 21 21 20 20 19 19 19 19 20 20 21 23 25 28 30 31 33 36 38 41 43 44 45 46 46 47 48 48 52 52 52 53 54
28 27 26 25 24 23 24 23 22 22 21 19 19 18 18 17 15 17 17 17 18 20 21 23 27 30 30 33 36 39 41 44 45 47 47 48 49 50 51 53 54 55 58 58
27 26 25 23 22 22 22 23 21 20 19 18 17 17 16 16 14 14 14 16 17 19 20 22 25 27 29 32 35 39 42 44 46 48 49 50 51 52 53 55 57 58 59 61
27 26 25 24 24 22 21 22 21 19 18 18 17 16 15 14 13 13 13 13 16 17 18 20 24 25 27 30 33 38 41 43 46 48 51 51 53 53 54 56 58 59 61 62
29 28 26 25 23 22 22 21 20 19 18 18 18 16 15 14 12 13 13 12 14 13 16 19 22 23 24 28 32 34 39 43 44 46 49 52 55 56 56 58 59 61 62 62
32 30 29 27 26 25 24 23 22 21 20 19 18 17 16 14 12 11 13 12 12 13 13 17 19 20 21 26 30 31 35 40 43 45 47 50 54 57 60 61 62 63 64 65
31 31 31 30 29 29 27 25 24 22 21 20 19 17 16 15 13 11 11 12 11 12 13 14 16 16 18 22 27 29 31 36 40 43 46 48 51 55 59 63 64 65 66 67
30 31 32 32 31 30 29 27 25 24 23 22 21 20 18 16 14 13 12 10 11 11 12 13 13 15 17 18 22 26 29 32 36 40 43 46 48 51 55 59 63 66 67 68
Wind_Direction
310 311 311 309 308 305 302 303 301 298 297 292 290 287 282 277 274 272 269 267 264 262 259 257 254 251 247 245 243 241 240 239 238 238 237 236 235 234 234 232 233 230 229 228
312 311 309 308 308 304 304 302 300 298 294 291 289 287 283 278 274 271 269 267 265 262 260 257 254 252 249 246 244 242 240 239 239 238 238 237 236 235 234 234 233 234 232 230
312 309 307 309 306 304 302 301 298 295 292 290 289 286 283 279 276 272 270 268 265 261 258 258 256 253 249 246 245 243 242 240 239 238 238 238 237 235 235 235 234 232 233 233
310 308 309 307 304 302 301 300 299 296 293 292 288 287 286 285 280 277 273 269 266 263 258 256 256 254 251 247 244 243 241 241 240 239 238 238 238 238 236 235 235 235 233 233
308 308 308 306 302 300 300 299 296 294 292 291 290 288 287 285 282 279 274 270 267 263 259 255 255 254 251 248 244 242 240 240 240 239 239 238 237 237 237 235 234 235 235 234
307 308 307 303 301 300 299 297 295 294 293 292 291 289 287 285 281 277 273 270 266 264 261 257 253 253 250 248 245 242 239 238 238 238 238 238 237 236 236 236 235 233 233 234
307 305 304 302 301 300 300 297 296 295 294 292 289 287 285 282 281 277 272 270 267 263 260 258 254 252 250 248 245 242 240 238 237 237 237 237 236 235 235 234 234 233 233 233
305 304 303 302 301 300 299 298 297 296 294 291 289 286 282 280 279 276 272 269 266 263 262 258 254 251 249 247 245 242 240 238 237 236 235 235 235 235 233 233 233 233 232 231
304 303 303 302 302 301 300 300 298 297 295 292 289 285 281 278 275 274 272 269 266 263 260 259 255 251 248 247 244 241 238 237 236 235 234 233 234 233 233 232 232 231 230 229
304 304 304 303 302 301 299 298 297 295 294 293 291 287 282 277 273 271 271 268 264 261 257 255 253 250 247 245 244 241 238 234 233 232 232 231 230 231 231 229 229 230 229 227
304 305 305 304 303 302 300 297 296 295 294 293 290 287 283 279 274 270 268 266 262 258 255 251 250 247 245 242 241 239 235 232 230 229 228 228 228 227 227 227 226 226 226 226
305 305 305 304 303 301 298 296 294 293 291 290 287 286 283 280 276 272 266 262 260 256 253 248 246 244 242 239 237 235 230 228 227 226 224 225 226 225 224 223 223 222 223 223
306 306 305 305 303 301 298 296 293 292 291 289 289 285 281 278 275 271 267 260 258 255 251 247 244 241 237 234 232 230 226 225 224 224 223 223 222 221 221 220 219 220 220 220
307 306 304 305 305 303 300 296 294 293 291 291 289 287 282 277 274 269 264 259 255 251 249 245 241 238 233 230 226 225 223 222 222 221 220 219 218 216 216 217 215 215 215 215
308 307 307 307 307 306 303 300 297 295 293 293 291 289 285 279 274 269 262 257 252 249 246 242 239 236 231 227 224 221 220 220 218 217 217 215 213 213 213 214 213 211 212 211
310 310 309 308 308 306 305 304 301 296 294 292 290 288 286 282 277 271 262 254 251 246 244 240 237 233 228 224 222 218 217 216 217 215 214 212 210 211 211 211 210 211 209 208
314 314 312 310 310 308 307 306 303 298 297 296 292 289 286 283 278 272 265 255 249 244 241 239 236 232 228 222 221 216 216 215 215 214 212 211 210 211 211 211 209 210 209 207
317 315 314 312 312 312 312 312 309 306 302 298 294 291 288 284 280 274 266 257 251 244 239 237 235 231 227 221 218 217 215 214 213 213 213 211 210 210 212 211 210 210 211 208
322 320 319 319 317 317 316 315 313 311 309 304 300 296 292 285 280 275 269 262 252 245 239 237 234 231 227 221 217 216 215 214 213 213 213 211 211 210 209 211 210 209 211 210
326 325 324 324 324 321 318 320 319 317 316 311 305 303 300 291 283 278 272 266 258 247 239 236 234 232 228 223 218 216 216 215 214 213 212 211 212 212 209 209 210 208 210 210
334 333 331 330 330 329 327 327 324 324 323 318 311 305 302 302 291 279 274 267 260 252 244 237 235 233 229 225 219 217 216 216 214 213 213 212 212 212 211 210 210 209 209 212
344 344 343 340 337 336 335 333 332 330 327 322 319 312 305 302 299 290 279 268 261 253 249 240 238 235 230 227 222 219 218 216 215 214 213 212 211 212 212 212 212 211 211 212
352 351 350 350 350 348 343 341 342 339 334 330 328 323 318 310 301 293 286 276 265 254 250 241 240 235 230 230 225 222 219 219 218 216 215 213 213 213 212 213 214 214 215 213
2 1 0 360 359 358 357 356 355 350 344 340 338 337 330 321 313 296 290 282 275 266 252 246 242 238 231 228 230 226 221 221 220 219 218 216 214 214 214 214 215 217 217 218
9 9 8 8 9 9 7 5 3 2 357 350 348 343 340 335 327 311 297 288 278 272 261 253 249 243 233 229 233 228 225 223 222 222 221 220 218 216 216 217 217 218 218 219
12 14 13 13 12 12 13 13 11 7 4 0 357 354 349 343 337 328 312 301 288 276 270 261 258 252 240 232 234 233 229 226 225 224 223 222 222 221 220 219 220 220 220 221
18 18 19 19 18 17 16 17 16 15 11 7 3 0 359 355 347 340 332 315 303 289 275 269 260 253 246 239 236 234 232 229 228 226 225 224 223 223 223 222 221 222 222 224